Content
SEND FEEDBACK

Daily
Averages
Monthly
Summary
United States of America

BEAVER ISLAND, MICHIGAN


Home > North America > United States > Michigan
Elevation: 627 feet     Latitude: 45 43N     Longitude: 085 31W

WEATHER
 
SELECT A DAY
Number of Records: 320,508;   Date Range: 9/12/01 - 7/26/14
 
SHARE

PRINT THIS DATA

[ ← Previous Day ]
WEATHER ALMANAC - JANUARY 21, 2014
[ Next Day → ]
[ °C ]   °F
Weather ElementAverageHighLow
Temperature2.8 °F8.2 °F (7:35 pm)-4.4 °F (6:35 am)
Dewpoint-2.9 °F1.4 °F (8:14 pm)-8.5 °F (6:15 am)
Humidity77.3 %85 % (6:55 am)70 % (3:35 am)
Barometer30.18 in30.23 in (10:35 am)30.10 in (11:55 pm)
Wind Speed1.4 mph8.1 mph (2:55 am)
Weather ElementAverage
Visibility8.9 mi
Wind DirectionNNE (33 °)

Weather ElementTotal
Precipitation---
Heating Degree Days63.1 (Base 65)
Averaged from 71 records on January 21, 2014
WEATHER CONDITIONS BREAKOUT
WIND DIRECTION BREAKOUT
WEATHER BY HOUR - JANUARY 21, 2014
[ °C ]   °F
Local TimeTemperatureDewpointHumidityBarometerVisibilityWind DirectionWind SpeedGust SpeedPrecipitationEventsConditions
12:35 AM3.0 °F-1.5 °F82 %30.15 in4.0 miNNE (30°)5.8 mphSnowLight Snow
12:55 AM1.2 °F-3.1 °F82 %30.15 in10.0 miNE (40°)4.6 mphScattered Clouds
1:15 AM0.3 °F-4.5 °F80 %30.15 in10.0 miNE (40°)5.8 mphScattered Clouds
1:35 AM0.3 °F-4.7 °F79 %30.15 in10.0 miNE (50°)4.6 mphMostly Cloudy
1:55 AM-0.6 °F-6.9 °F75 %30.16 in10.0 miNNE (20°)3.5 mphScattered Clouds
2:16 AM-0.9 °F-7.2 °F75 %30.16 in10.0 miCalmMostly Cloudy
2:35 AM-0.9 °F-6.9 °F76 %30.17 in10.0 miNE (40°)3.5 mphOvercast
2:55 AM-0.4 °F-6.7 °F75 %30.17 in7.0 miNNE (20°)8.1 mphOvercast
3:16 AM-0.4 °F-7.6 °F72 %30.18 in5.0 miNNE (30°)6.9 mphHaze
3:35 AM0.0 °F-7.6 °F70 %30.18 in5.0 miNE (40°)8.1 mphHaze
3:55 AM0.1 °F-6.9 °F72 %30.18 in5.0 miENE (60°)4.6 mphHaze
4:15 AM-0.4 °F-6.7 °F75 %30.19 in5.0 miENE (60°)4.6 mphHaze
4:35 AM-1.1 °F-6.7 °F77 %30.19 in10.0 miENE (70°)3.5 mphMostly Cloudy
4:56 AM-1.1 °F-6.5 °F78 %30.19 in10.0 miCalmMostly Cloudy
5:15 AM-1.7 °F-6.2 °F81 %30.20 in7.0 miNE (50°)3.5 mphMostly Cloudy
5:35 AM-2.0 °F-6.2 °F83 %30.20 in10.0 miENE (70°)3.5 mphMostly Cloudy
5:55 AM-4.0 °F-8.1 °F82 %30.20 in10.0 miCalmOvercast
6:15 AM-4.2 °F-8.5 °F82 %30.20 in10.0 miCalmOvercast
6:35 AM-4.4 °F-8.1 °F84 %30.21 in4.0 miCalmSnowLight Snow
6:55 AM-3.5 °F-7.1 °F85 %30.21 in7.0 miCalmOvercast
7:15 AM-3.6 °F-7.8 °F82 %30.21 in10.0 miCalmOvercast
7:36 AM-2.0 °F-6.2 °F83 %30.22 in10.0 miCalmOvercast
7:55 AM-1.5 °F-5.8 °F82 %30.22 in10.0 miCalmOvercast
8:15 AM-2.2 °F-6.2 °F83 %30.22 in10.0 miCalmOvercast
8:36 AM-3.1 °F-6.9 °F84 %30.22 in10.0 miCalmOvercast
8:55 AM-2.2 °F-6.7 °F81 %30.22 in10.0 miCalmOvercast
9:15 AM-2.6 °F-6.5 °F83 %30.22 in10.0 miCalmOvercast
9:35 AM-1.5 °F-5.6 °F83 %30.22 in7.0 miCalmOvercast
9:55 AM-0.9 °F-4.7 °F84 %30.22 in7.0 miCalmOvercast
10:16 AM1.4 °F-3.1 °F81 %30.22 in10.0 miCalmOvercast
10:35 AM1.9 °F-2.7 °F81 %30.23 in7.0 miCalmMostly Cloudy
10:55 AM2.8 °F-2.9 °F77 %30.22 in10.0 miESE (110°)3.5 mphMostly Cloudy
11:16 AM3.2 °F-3.3 °F74 %30.23 in10.0 miCalmScattered Clouds
11:35 AM3.9 °F-2.4 °F75 %30.23 in10.0 miCalmMostly Cloudy
11:55 AM4.6 °F-1.8 °F75 %30.22 in5.0 miCalmHaze
12:16 PM6.1 °F-0.4 °F75 %30.22 in3.0 miCalmHaze
12:35 PM5.4 °F-1.5 °F73 %30.20 in2.5 miCalmHaze
12:55 PM5.9 °F-1.7 °F71 %30.20 in10.0 miCalmOvercast
1:15 PM5.7 °F-1.3 °F73 %30.19 in5.0 miCalmHaze
1:35 PM6.8 °F-0.6 °F72 %30.19 in10.0 miNW (320°)4.6 mphOvercast
1:56 PM5.4 °F-0.9 °F75 %30.19 in10.0 miNW (320°)5.8 mphOvercast
2:15 PM5.5 °F-0.8 °F75 %30.19 in10.0 miNNW (330°)4.6 mphOvercast
2:35 PM6.1 °F-0.8 °F73 %30.18 in10.0 miWNW (300°)3.5 mphOvercast
2:56 PM5.7 °F-1.1 °F73 %30.18 in10.0 miNNW (340°)3.5 mphOvercast
3:15 PM5.9 °F-0.8 °F74 %30.18 in10.0 miCalmOvercast
3:35 PM6.3 °F-0.9 °F72 %30.18 in10.0 miCalmOvercast
3:55 PM6.3 °F-0.9 °F72 %30.18 in10.0 miCalmOvercast
4:15 PM6.3 °F-0.9 °F72 %30.18 in10.0 miCalmOvercast
4:35 PM6.6 °F-1.3 °F70 %30.19 in10.0 miCalmOvercast
4:55 PM7.0 °F-0.8 °F71 %30.19 in10.0 miCalmOvercast
5:15 PM7.0 °F-0.8 °F71 %30.19 in10.0 miCalmOvercast
5:36 PM6.6 °F-0.4 °F73 %30.18 in10.0 miCalmOvercast
5:55 PM6.1 °F-0.4 °F75 %30.18 in10.0 miCalmOvercast
6:15 PM6.6 °F0.1 °F75 %30.18 in10.0 miCalmOvercast
6:36 PM7.3 °F0.0 °F72 %30.17 in10.0 miCalmOvercast
6:55 PM7.3 °F0.1 °F72 %30.17 in10.0 miCalmOvercast
7:15 PM6.6 °F0.3 °F75 %30.16 in7.0 miCalmOvercast
7:35 PM8.2 °F1.0 °F72 %30.16 in10.0 miCalmOvercast
7:55 PM6.1 °F1.2 °F80 %30.16 in10.0 miCalmOvercast
8:14 PM6.4 °F1.4 °F80 %30.16 in10.0 miCalmOvercast
8:35 PM6.1 °F1.2 °F80 %30.15 in10.0 miCalmOvercast
8:56 PM5.9 °F1.0 °F80 %30.15 in10.0 miCalmOvercast
9:15 PM6.3 °F0.9 °F78 %30.15 in10.0 miCalmOvercast
9:35 PM5.9 °F1.2 °F81 %30.14 in10.0 miCalmOvercast
9:56 PM5.5 °F1.0 °F82 %30.14 in10.0 miCalmOvercast
10:15 PM5.5 °F0.9 °F81 %30.13 in10.0 miCalmOvercast
10:35 PM4.5 °F0.0 °F82 %30.13 in10.0 miCalmOvercast
10:55 PM4.6 °F0.3 °F82 %30.12 in10.0 miCalmOvercast
11:15 PM4.6 °F0.1 °F82 %30.12 in10.0 miCalmOvercast
11:35 PM6.3 °F-0.8 °F73 %30.11 in10.0 miCalmOvercast
11:55 PM5.9 °F0.3 °F78 %30.10 in10.0 miCalmOvercast
Hourly data recorded from KSJX, located miles away from Beaver Island, Michigan







STORIES FROM OUR PARTNERS